GW1195 Weather Reports


Display with metric or nautical units.
time (UTC)temp
F
wind
direction
speed
MPH
gust
MPH
rain 1hr
in
rain 24hr
in
rain mn
in
humidity
%
barometer
mb
20260906111606 53 0 0.0 1.0 0.00 0.00 0.00 97 1016.0
20260906110042 53 0 0.0 0.0 0.00 0.00 0.00 96 1015.9
20260906104553 53 0 0.0 1.0 0.00 0.00 0.00 96 1015.9
20260906103049 53 0 0.0 1.0 0.00 0.00 0.00 96 1015.8
20260906101549 53 0 0.0 0.0 0.00 0.00 0.00 96 1015.8
20260906100043 53 0 0.0 1.0 0.00 0.00 0.00 96 1015.8
20260906094551 53 0 0.0 1.0 0.00 0.00 0.00 96 1016.0
20260906093051 53 0 0.0 0.0 0.00 0.00 0.00 96 1016.0
20260906091548 53 0 0.0 0.0 0.00 0.00 0.00 96 1015.9
20260906090045 54 0 0.0 2.0 0.00 0.00 0.00 96 1016.0
20260906084552 54 0 0.0 1.0 0.00 0.00 0.00 96 1016.1
20260906083051 54 0 0.0 0.0 0.00 0.00 0.00 96 1016.1
20260906081546 54 0 0.0 1.0 0.00 0.00 0.00 96 1016.2
20260906080057 54 0 0.0 1.0 0.00 0.00 0.00 96 1016.2
20260906074551 54 0 0.0 1.0 0.00 0.00 0.00 95 1016.2
20260906073054 54 0 0.0 2.0 0.00 0.00 0.00 95 1016.3
20260906071551 54 0 0.0 1.0 0.00 0.00 0.00 95 1016.3
20260906070057 54 0 0.0 0.0 0.00 0.00 0.00 94 1016.2
20260906064552 55 0 0.0 0.0 0.00 0.00 0.00 94 1016.3
20260906063041 55 0 0.0 0.0 0.00 0.00 0.00 94 1016.5
20260906061552 55 0 0.0 2.0 0.00 0.00 0.00 94 1016.4
20260906060048 56 0 0.0 0.0 0.00 0.00 0.00 93 1016.5
20260906054604 56 0 0.0 1.0 0.00 0.00 0.00 93 1016.5
20260906053059 56 0 0.0 0.0 0.00 0.00 0.00 93 1016.6
20260906051608 56 0 0.0 0.0 0.00 0.00 0.00 92 1016.6
20260906050047 57 0 0.0 0.0 0.00 0.00 0.00 91 1016.7
20260906044601 57 0 0.0 1.0 0.00 0.00 0.00 91 1016.7
20260906043049 58 0 0.0 1.0 0.00 0.00 0.00 90 1016.7
20260906041551 58 0 0.0 0.0 0.00 0.00 0.00 89 1016.6
20260906040122 58 0 0.0 2.0 0.00 0.00 0.00 89 1016.7
20260906034604 59 168 0.0 4.0 0.00 0.00 0.00 88 1016.6
20260906033103 59 0 0.0 3.0 0.00 0.00 0.00 87 1016.7
20260906031545 60 0 2.0 8.0 0.00 0.00 0.00 87 1016.6
20260906030054 60 303 3.0 9.0 0.00 0.00 0.00 85 1016.6
20260906024600 61 288 2.0 7.0 0.00 0.00 0.00 83 1016.5
20260906023045 61 257 2.0 9.0 0.00 0.00 0.00 83 1016.5
20260906021542 62 285 2.0 8.0 0.00 0.00 0.00 83 1016.7
20260906020050 63 300 2.0 9.0 0.00 0.00 0.00 80 1016.7
20260906014548 64 307 2.0 10.0 0.00 0.00 0.00 78 1016.7
20260906013042 64 355 3.0 7.0 0.00 0.00 0.00 75 1016.8
20260906011550 64 261 4.0 8.0 0.00 0.00 0.00 74 1016.8
20260906010052 64 279 1.0 6.0 0.00 0.00 0.00 76 1016.8
20260906004543 64 348 2.0 6.0 0.00 0.00 0.00 75 1016.8
20260906003053 64 360 2.0 7.0 0.00 0.00 0.00 77 1016.6
20260906001549 63 309 2.0 8.0 0.00 0.00 0.00 78 1016.6
20260906000051 64 254 2.0 6.0 0.00 0.00 0.00 77 1016.5
20260905234548 65 344 2.0 7.0 0.00 0.00 0.00 78 1016.5
20260905233058 66 239 1.0 4.0 0.00 0.00 0.00 77 1016.6
20260905231548 65 169 1.0 5.0 0.00 0.00 0.00 81 1016.8
20260905224612 64 266 0.0 4.0 0.00 0.00 0.00 83 1017.1
20260905223048 63 271 1.0 4.0 0.00 0.00 0.00 87 1017.0
20260905221543 62 0 1.0 6.0 0.00 0.00 0.00 88 1017.2
20260905220051 62 229 0.0 3.0 0.00 0.00 0.00 87 1017.2
20260905214551 63 217 1.0 7.0 0.00 0.00 0.00 85 1017.3
20260905213102 64 282 1.0 5.0 0.00 0.00 0.00 82 1017.4
20260905211552 64 355 2.0 9.0 0.00 0.00 0.00 77 1017.3
20260905210057 64 338 2.0 9.0 0.00 0.00 0.00 79 1017.3
20260905204546 64 360 4.0 10.0 0.00 0.00 0.00 78 1017.2
20260905203043 64 317 5.0 10.0 0.00 0.00 0.00 77 1017.2
20260905201550 64 297 3.0 9.0 0.00 0.00 0.00 77 1017.2
20260905200050 66 5 2.0 8.0 0.00 0.00 0.00 75 1017.3
20260905194551 65 337 2.0 8.0 0.00 0.00 0.00 76 1017.2
20260905193043 66 266 2.0 7.0 0.00 0.00 0.00 75 1017.2
20260905191549 65 55 0.0 6.0 0.00 0.00 0.00 76 1017.2
20260905190048 65 79 2.0 7.0 0.00 0.00 0.00 74 1017.2
20260905184555 66 336 0.0 4.0 0.00 0.00 0.00 74 1017.1
20260905183050 65 213 1.0 5.0 0.00 0.00 0.00 73 1017.2
20260905181548 65 164 0.0 5.0 0.00 0.00 0.00 75 1017.2
20260905174550 67 194 1.0 4.0 0.00 0.00 0.00 71 1017.2
20260905173105 65 312 0.0 4.0 0.00 0.00 0.00 77 1017.2
20260905171547 62 222 0.0 3.0 0.00 0.00 0.00 85 1017.2
20260905170101 60 0 0.0 3.0 0.00 0.00 0.00 90 1017.1
20260905164553 59 199 0.0 2.0 0.00 0.00 0.00 95 1016.9
20260905163049 58 68 0.0 4.0 0.00 0.00 0.00 98 1016.8
20260905161605 56 0 0.0 2.0 0.00 0.00 0.00 98 1017.0
20260905160051 55 0 0.0 2.0 0.00 0.00 0.00 98 1017.1
20260905154546 54 83 0.0 1.0 0.00 0.00 0.00 98 1017.0
20260905153047 53 0 0.0 0.0 0.00 0.00 0.00 97 1017.2
20260905151557 53 0 0.0 2.0 0.00 0.00 0.00 97 1017.2
20260905150056 53 0 0.0 2.0 0.00 0.00 0.00 97 1017.0
20260905144551 52 0 0.0 0.0 0.00 0.00 0.00 97 1017.0
20260905143047 52 0 0.0 0.0 0.00 0.00 0.00 97 1017.1
20260905141551 52 0 0.0 0.0 0.00 0.00 0.00 97 1016.9
20260905140049 52 0 0.0 0.0 0.00 0.00 0.00 97 1016.8
20260905134548 51 0 0.0 0.0 0.00 0.00 0.00 97 1016.8
20260905133101 51 0 0.0 0.0 0.00 0.00 0.00 97 1016.7
20260905131550 51 0 0.0 1.0 0.00 0.00 0.00 97 1016.7
20260905130047 51 0 0.0 1.0 0.00 0.00 0.00 97 1016.7
20260905124554 51 0 0.0 1.0 0.00 0.00 0.00 97 1016.6
20260905123103 51 0 0.0 2.0 0.00 0.00 0.00 97 1016.6
20260905121553 50 0 0.0 0.0 0.00 0.00 0.00 97 1016.5
20260905120055 50 252 0.0 1.0 0.00 0.00 0.00 97 1016.5
20260905114600 50 0 0.0 1.0 0.00 0.00 0.00 97 1016.5
20260905113050 49 0 0.0 0.0 0.00 0.00 0.00 97 1016.6